Regional Weather Roundup
Issued by NWS

Home | Current Version | Previous Version | Text Only | Print | Product List | Glossary Off
Versions: 1 2 3 4 5 6 7 8 9 10 11 12 13 14 15 16 17 18 19 20 21 22 23 24 25 26 27 28 29 30 31 32 33 34 35 36 37 38 39 40 41 42 43 44 45 46 47 48 49 50

000
ASUS43 KMPX 260101
RWRMN
WEATHER ROUNDUP FOR MINNESOTA
NATIONAL WEATHER SERVICE TWIN CITIES/CHANHASSEN MN
800 PM CDT MON JUL 25 2016


NOTE: "FAIR" INDICATES FEW OR NO CLOUDS BELOW 12,000 FEET WITH NO
SIGNIFICANT WEATHER AND/OR OBSTRUCTIONS TO VISIBILITY. N/A MEANS
CURRENT SKY AND/OR WEATHER CONDITIONS ARE NOT AVAILABLE.

MNZ060>063-068>070-260200-
   Twin Cities Metro

CITY           SKY/WX    TMP DP  RH WIND       PRES   REMARKS
TWIN CITIES    PTCLDY    84  63  49 W10       30.02S
ST PAUL        CLEAR     82  63  52 NW8       30.01S
CRYSTAL        CLEAR     82  62  50 W9        30.01R
BLAINE         CLEAR     84  64  51 W9        30.02R
LAKEVILLE      CLEAR     79  64  61 W3        30.03S
EDEN PRAIRIE   CLEAR     83  64  52 W6        30.02R
LAKEVILLE      CLEAR     79  64  61 W3        30.03S
SOUTH ST PAUL  CLEAR     83  61  47 W7        30.01S
LAKE ELMO      FAIR      81  66  61 W3        30.03S
$$
MNZ001>005-007-008-013>017-022>024-027-028-260200-
   Northwest Minnesota

CITY           SKY/WX    TMP DP  RH WIND       PRES   REMARKS
HALLOCK        SUNNY     82  70  65 CALM      29.92S
ROSEAU         CLEAR     81  68  65 W5        29.95S
WARROAD        CLEAR     81  68  65 CALM      29.95S
THIEF RVR FALL CLEAR     82  70  66 E3        29.95S
CROOKSTON      CLEAR     84  68  58 S6        29.92S
FOSSTON        CLEAR     81  68  65 S5        29.97S
DETROIT LAKES  CLEAR     81  64  57 S7        29.99F
MOORHEAD       CLEAR     84  68  58 S6        29.93S
PARK RAPIDS    CLEAR     81  66  60 SW5       30.00S
MAHNOMEN       FAIR      81  70  70 S5        29.96S
$$
MNZ006-009>011-018-025>026-260200-
   North Central Minnesota

CITY           SKY/WX    TMP DP  RH WIND       PRES   REMARKS
BAUDETTE       CLEAR     78  63  59 NW6       29.95S
FLAG ISLAND    CLEAR     81  57  44 W7        29.92S
INTL FALLS     CLEAR     77  61  57 W3        29.95R
WASKISH        CLEAR     79  66  65 SW5       29.96F
BIG FORK       CLEAR     79  63  57 CALM      29.98S
LONGVILLE      CLEAR     81  63  54 SW3       29.99S
GRAND RAPIDS   CLEAR     79  64  60 CALM      30.01S
CRANE LAKE     CLEAR     77  61  57 W2        29.96S
ORR            CLEAR     77  61  57 CALM      29.95R
COOK           CLEAR     79  61  53 W6        29.98S
WALKER         FAIR      79  64  60 SW5       29.99S
$$
MNZ012-019>021-037-260200-
   Northeast Minnesota

CITY           SKY/WX    TMP DP  RH WIND       PRES   REMARKS
DULUTH         CLEAR     78  64  61 W7        29.99S
ELY            CLEAR     77  59  53 W3        29.97R
HIBBING        CLEAR     77  62  59 W5        29.98S
EVELETH        CLEAR     78  58  49 W5        30.00R
DULUTH HARBOR  CLEAR     82  66  57 W9        29.95S
TWO HARBORS    CLEAR     79  66  65 CALM      29.95S
SILVER BAY     CLEAR     75  64  69 CALM      29.95R
GRAND MARAIS     N/A     61  52  72 W7        29.93R
G MARAIS ARPRT CLEAR     70  55  60 W3        29.99R
$$
MNZ029>031-032-039>041-046>048-054>057-064-260200-
   West Central Minnesota

CITY           SKY/WX    TMP DP  RH WIND       PRES   REMARKS
FERGUS FALLS   CLEAR     82  66  57 MISG      29.97S
WHEATON        CLEAR     82  70  65 S7        29.98S
MORRIS         CLEAR     82  66  57 S7        29.99S
ALEXANDRIA     CLEAR     81  66  60 SW9       30.02F
ELBOW LAKE     FAIR      79  69  71 S7        29.99F
WADENA         CLEAR     81  66  61 S7        30.00S
GLENWOOD       CLEAR     81  68  65 S6        30.03S
APPLETON       CLEAR     82  63  51 S5        29.99F
BENSON         CLEAR     81  66  61 SW5       30.00F
ORTONVILLE     CLEAR     82  66  57 S5        29.99S
MADISON        CLEAR     79  64  61 S6        30.01S
WILLMAR        FAIR      82  72  69 CALM      30.03S
$$
MNZ033>034-036-042>043-049>051-058-059-260200-
   Central Minnesota

CITY           SKY/WX    TMP DP  RH WIND       PRES   REMARKS
ST CLOUD       CLEAR     80  67  64 SW6       30.01F
SAUK CENTRE    FAIR      80  69  68 S3        30.02S
PAYNESVILLE    CLEAR     79  67  66 SW3       30.03S
AITKIN         CLEAR     81  61  50 CALM      29.99S
PINE RIVER     CLEAR     81  64  57 CALM      30.03S
BRAINERD       CLEAR     81  63  54 SW8       30.00S
STAPLES        CLEAR     81  64  57 S5        30.01R
LONG PRAIRIE   FAIR      79  68  69 SE5       30.02F
LITTLE FALLS   CLEAR     81  63  54 SW3       30.01F
LITCHFIELD     CLEAR     81  73  78 CALM      30.03R
BUFFALO        CLEAR     81  64  57 SW3       30.03F
MAPLE LAKE     CLEAR     81  68  64 CALM      30.03F
HUTCHINSON     CLEAR     81  71  71 CALM      30.04S
$$
MNZ037-044-045-052-053-260200-
   East Central Minnesota

CITY           SKY/WX    TMP DP  RH WIND       PRES   REMARKS
PRINCETON      CLEAR     82  66  57 CALM      30.02S
MORA           CLEAR     79  63  57 W3        30.02S
CAMBRIDGE      CLEAR     84  66  54 CALM      30.00S
RUSH CITY      CLEAR     79  65  62 CALM      30.01S
MOOSE LAKE     CLEAR     77  68  73 CALM      29.98S
HINCKLEY       FAIR      79  70  73 SW3       30.00S
CLOQUET        CLEAR     81  59  47 W6        29.99S
MCGREGOR       CLEAR     81  63  54 CALM      30.00S
$$
MNZ071>073-080-081-089-090-097-098-260200-
   Southwest Minnesota

CITY           SKY/WX    TMP DP  RH WIND       PRES   REMARKS
MONTEVIDEO     CLEAR     82  64  54 SW7       30.03S
GRANITE FALLS  CLEAR     82  70  66 S5        30.03S
CANBY          CLEAR     82  64  53 SW5       30.03S
MARSHALL       CLEAR     83  69  62 S5        30.03S
REDWOOD FALLS  CLEAR     83  66  56 SW6       30.02S
OLIVIA         CLEAR     79  70  73 S3        30.02F
PIPESTONE      CLEAR     81  66  61 S5        30.07S
WINDOM         CLEAR     82  66  57 CALM      30.06S
WORTHINGTON    CLEAR     80  64  58 MISG      30.07S
JACKSON        CLEAR     81  64  57 CALM      30.07S
TRACY          CLEAR     81  65  58 S5        30.04F
SLAYTON        CLEAR     80  66  62 SW3       30.07F
$$
MNZ065>067-074>077-082>085-091>093-260200-
   South Central Minnesota

CITY           SKY/WX    TMP DP  RH WIND       PRES   REMARKS
MANKATO        CLEAR     81  64  57 CALM      30.04S
NEW ULM        CLEAR     82  66  57 SW3       30.03S
ST JAMES       CLEAR     79  63  57 CALM      30.05S
FAIRMONT       CLEAR     82  66  57 CALM      30.05S
GLENCOE        CLEAR     82  69  65 CALM      30.03S
FARIBAULT      CLEAR     79  68  69 CALM      30.05R
OWATONNA       CLEAR     79  68  69 CALM      30.05S
WASECA         CLEAR     77  66  69 CALM      30.06S
ALBERT LEA     CLEAR     79  66  65 CALM      30.06S
$$
MNZ078>079-086>088-094>096-260200-
   Southeast Minnesota

CITY           SKY/WX    TMP DP  RH WIND       PRES   REMARKS
ROCHESTER      CLEAR     77  68  73 NW5       30.05S
RED WING       CLEAR     81  72  74 CALM      30.00S
STANTON        CLEAR     81  66  61 W3        30.02R
DODGE CENTER   CLEAR     79  63  57 NW5       30.06S
WINONA         CLEAR     81  63  54 CALM      30.01S
AUSTIN         CLEAR     77  64  65 NW3       30.05S
PRESTON        CLEAR     76  65  67 NW3       30.06R
$$
ABBREVIATIONS USED IN REMARKS
   TC - TEMPERATURES IN CELSIUS
  WCI - WIND CHILL INDEX
   HX - HEAT INDEX
  VSB - VISIBILITY
$$




USA.gov is the U.S. government's official web portal to all federal, state and local government web resources and services.